Time,TemperatureF,DewpointF,PressureIn,WindDirection,WindDirectionDegrees,WindSpeedMPH,WindSpeedGustMPH,Humidity,HourlyPrecipIn,Conditions,Clouds,dailyrainin,SoftwareType,DateUTC
2013-02-28 00:00:00,31.1,29.0,24.26,WSW,245,3.0,9.0,92,0.00,,SKC,0.08,VWS V14.01,2013-02-28 05:00:00,
2013-02-28 00:05:00,31.1,29.0,24.27,WSW,256,2.0,12.0,92,0.00,,SKC,0.00,VWS V14.01,2013-02-28 05:05:00,
2013-02-28 00:10:00,31.1,29.0,24.26,WSW,245,4.0,6.0,92,0.00,,SKC,0.00,VWS V14.01,2013-02-28 05:10:00,
2013-02-28 00:15:00,31.1,29.0,24.25,WSW,254,4.0,10.0,92,0.00,,SKC,0.00,VWS V14.01,2013-02-28 05:15:00,
2013-02-28 00:20:00,31.1,29.3,24.25,WSW,250,1.0,10.0,93,0.00,,SKC,0.00,VWS V14.01,2013-02-28 05:20:00,
2013-02-28 00:25:00,31.1,29.3,24.26,WSW,257,9.0,11.0,93,0.00,,SKC,0.00,VWS V14.01,2013-02-28 05:25:00,
2013-02-28 00:30:00,31.1,29.3,24.31,WSW,244,5.0,7.0,93,0.00,,SKC,0.00,VWS V14.01,2013-02-28 05:30:00,
2013-02-28 00:35:00,31.2,29.4,24.30,SW,225,6.0,6.0,93,0.00,,SKC,0.00,VWS V14.01,2013-02-28 05:35:00,
2013-02-28 00:40:00,31.2,29.4,24.34,North,360,6.0,6.0,93,0.00,,SKC,0.00,VWS V14.01,2013-02-28 05:40:00,
2013-02-28 00:45:00,31.2,29.4,24.31,WSW,244,2.0,11.0,93,0.00,,SKC,0.00,VWS V14.01,2013-02-28 05:45:00,
2013-02-28 00:50:00,31.3,29.5,24.32,SW,232,4.0,12.0,93,0.00,,SKC,0.00,VWS V14.01,2013-02-28 05:50:00,
2013-02-28 00:55:00,31.3,29.2,24.30,WSW,253,6.0,11.0,92,0.00,,SKC,0.00,VWS V14.01,2013-02-28 05:55:00,
2013-02-28 01:00:00,31.4,29.4,24.33,West,267,5.0,17.0,92,0.00,,SKC,0.00,VWS V14.01,2013-02-28 06:00:00,
2013-02-28 01:05:00,31.4,29.4,24.34,North,360,4.0,11.0,92,0.00,,SKC,0.00,VWS V14.01,2013-02-28 06:05:00,
2013-02-28 01:10:00,31.5,29.5,24.35,WSW,250,0.0,7.0,92,0.00,,SKC,0.00,VWS V14.01,2013-02-28 06:10:00,
2013-02-28 01:15:00,31.5,29.5,24.34,WSW,245,5.0,10.0,92,0.00,,SKC,0.00,VWS V14.01,2013-02-28 06:15:00,
2013-02-28 01:20:00,31.5,29.5,24.34,North,360,8.0,12.0,92,0.00,,SKC,0.00,VWS V14.01,2013-02-28 06:20:00,
2013-02-28 01:25:00,31.6,29.3,24.34,WSW,248,4.0,14.0,91,0.00,,SKC,0.00,VWS V14.01,2013-02-28 06:25:00,
2013-02-28 01:30:00,31.6,29.3,24.33,North,360,12.0,17.0,91,0.00,,SKC,0.00,VWS V14.01,2013-02-28 06:30:00,
2013-02-28 01:35:00,31.7,29.4,24.34,North,360,4.0,15.0,91,0.00,,SKC,0.00,VWS V14.01,2013-02-28 06:35:00,
2013-02-28 01:40:00,31.7,29.4,24.33,WSW,246,5.0,10.0,91,0.00,,SKC,0.00,VWS V14.01,2013-02-28 06:40:00,
2013-02-28 01:45:00,31.7,29.4,24.34,SW,229,8.0,13.0,91,0.00,,SKC,0.00,VWS V14.01,2013-02-28 06:45:00,
2013-02-28 01:50:00,31.7,29.4,24.34,WSW,246,10.0,12.0,91,0.00,,SKC,0.00,VWS V14.01,2013-02-28 06:50:00,
2013-02-28 01:55:00,31.7,29.4,24.34,North,360,6.0,10.0,91,0.00,,SKC,0.00,VWS V14.01,2013-02-28 06:55:00,
2013-02-28 02:00:00,31.7,29.6,24.34,North,360,6.0,11.0,92,0.00,,SKC,0.00,VWS V14.01,2013-02-28 07:00:00,
2013-02-28 02:05:00,31.7,29.4,24.33,West,262,4.0,11.0,91,0.00,,SKC,0.00,VWS V14.01,2013-02-28 07:05:00,
2013-02-28 02:10:00,31.7,29.4,24.34,WSW,238,1.0,6.0,91,0.00,,SKC,0.00,VWS V14.01,2013-02-28 07:10:00,
2013-02-28 02:15:00,31.6,29.5,24.34,West,261,5.0,10.0,92,0.00,,SKC,0.00,VWS V14.01,2013-02-28 07:15:00,
2013-02-28 02:20:00,31.6,29.5,24.34,North,360,10.0,11.0,92,0.00,,SKC,0.00,VWS V14.01,2013-02-28 07:20:00,
2013-02-28 02:25:00,31.6,29.5,24.33,WSW,237,1.0,6.0,92,0.00,,SKC,0.00,VWS V14.01,2013-02-28 07:25:00,
2013-02-28 02:30:00,31.6,29.5,24.33,WSW,255,6.0,13.0,92,0.00,,SKC,0.00,VWS V14.01,2013-02-28 07:30:00,
2013-02-28 02:35:00,31.6,29.5,24.32,SW,223,1.0,9.0,92,0.00,,SKC,0.00,VWS V14.01,2013-02-28 07:35:00,
2013-02-28 02:40:00,31.6,29.5,24.34,SW,232,1.0,15.0,92,0.00,,SKC,0.00,VWS V14.01,2013-02-28 07:40:00,
2013-02-28 02:45:00,31.6,29.5,24.34,North,360,11.0,11.0,92,0.00,,SKC,0.00,VWS V14.01,2013-02-28 07:45:00,
2013-02-28 02:50:00,31.6,29.8,24.33,North,360,4.0,11.0,93,0.00,,SKC,0.00,VWS V14.01,2013-02-28 07:50:00,
2013-02-28 02:55:00,31.5,29.7,24.33,SW,225,1.0,10.0,93,0.00,,SKC,0.00,VWS V14.01,2013-02-28 07:55:00,
2013-02-28 03:00:00,31.5,29.7,24.35,North,360,16.0,16.0,93,0.00,,SKC,0.00,VWS V14.01,2013-02-28 08:00:00,
2013-02-28 03:05:00,31.5,29.7,24.33,North,360,9.0,11.0,93,0.00,,SKC,0.00,VWS V14.01,2013-02-28 08:05:00,
2013-02-28 03:10:00,31.4,29.6,24.33,North,360,12.0,12.0,93,0.00,,SKC,0.00,VWS V14.01,2013-02-28 08:10:00,
2013-02-28 03:15:00,31.4,29.9,24.36,West,271,7.0,10.0,94,0.00,,SKC,0.00,VWS V14.01,2013-02-28 08:15:00,
2013-02-28 03:20:00,31.4,29.9,24.34,WSW,252,3.0,10.0,94,0.00,,SKC,0.00,VWS V14.01,2013-02-28 08:20:00,
2013-02-28 03:25:00,31.4,29.9,24.36,SW,233,4.0,6.0,94,0.00,,SKC,0.00,VWS V14.01,2013-02-28 08:25:00,
2013-02-28 03:30:00,31.4,29.9,24.32,North,360,5.0,6.0,94,0.00,,SKC,0.00,VWS V14.01,2013-02-28 08:30:00,
2013-02-28 03:35:00,31.4,29.9,24.31,WSW,240,4.0,6.0,94,0.00,,SKC,0.00,VWS V14.01,2013-02-28 08:35:00,
2013-02-28 03:40:00,31.4,29.9,24.32,North,360,6.0,10.0,94,0.00,,SKC,0.00,VWS V14.01,2013-02-28 08:40:00,
2013-02-28 03:45:00,31.4,29.9,24.35,WSW,253,5.0,6.0,94,0.00,,SKC,0.00,VWS V14.01,2013-02-28 08:45:00,
2013-02-28 03:50:00,31.5,30.0,24.35,WSW,254,3.0,5.0,94,0.00,,SKC,0.00,VWS V14.01,2013-02-28 08:50:00,
2013-02-28 03:55:00,31.4,29.9,24.35,West,260,3.0,7.0,94,0.00,,SKC,0.00,VWS V14.01,2013-02-28 08:55:00,
2013-02-28 04:00:00,31.5,30.0,24.35,West,269,7.0,14.0,94,0.00,,SKC,0.00,VWS V14.01,2013-02-28 09:00:00,
2013-02-28 04:05:00,31.5,30.0,24.33,WNW,284,5.0,15.0,94,0.00,,SKC,0.00,VWS V14.01,2013-02-28 09:05:00,
2013-02-28 04:10:00,31.6,30.1,24.34,North,360,6.0,8.0,94,0.00,,SKC,0.00,VWS V14.01,2013-02-28 09:10:00,
2013-02-28 04:15:00,31.6,30.1,24.35,West,279,4.0,15.0,94,0.00,,SKC,0.00,VWS V14.01,2013-02-28 09:15:00,
2013-02-28 04:20:00,31.6,30.1,24.36,WNW,286,4.0,15.0,94,0.00,,SKC,0.00,VWS V14.01,2013-02-28 09:20:00,
2013-02-28 04:25:00,31.7,30.2,24.35,West,271,4.0,9.0,94,0.00,,SKC,0.00,VWS V14.01,2013-02-28 09:25:00,
2013-02-28 04:30:00,31.7,30.2,24.35,WSW,252,5.0,9.0,94,0.00,,SKC,0.00,VWS V14.01,2013-02-28 09:30:00,
2013-02-28 04:35:00,31.7,30.2,24.35,North,360,5.0,10.0,94,0.00,,SKC,0.00,VWS V14.01,2013-02-28 09:35:00,
2013-02-28 04:40:00,31.8,30.3,24.36,North,360,10.0,12.0,94,0.00,,SKC,0.00,VWS V14.01,2013-02-28 09:40:00,
2013-02-28 04:45:00,31.9,30.4,24.36,West,272,3.0,7.0,94,0.00,,SKC,0.00,VWS V14.01,2013-02-28 09:45:00,
2013-02-28 04:50:00,31.9,30.4,24.35,North,360,3.0,4.0,94,0.00,,SKC,0.00,VWS V14.01,2013-02-28 09:50:00,
2013-02-28 04:55:00,31.9,30.4,24.35,West,275,6.0,13.0,94,0.00,,SKC,0.00,VWS V14.01,2013-02-28 09:55:00,
2013-02-28 05:00:00,31.9,30.4,24.36,NW,310,5.0,11.0,94,0.00,,SKC,0.00,VWS V14.01,2013-02-28 10:00:00,
2013-02-28 05:05:00,32.0,30.5,24.36,WNW,288,3.0,8.0,94,0.00,,SKC,0.00,VWS V14.01,2013-02-28 10:05:00,
2013-02-28 05:10:00,32.0,30.5,24.34,West,275,3.0,6.0,94,0.00,,SKC,0.00,VWS V14.01,2013-02-28 10:10:00,
2013-02-28 05:15:00,32.0,32.0,24.36,NW,305,4.0,9.0,100,0.00,,SKC,0.00,VWS V14.01,2013-02-28 10:15:00,
2013-02-28 05:20:00,32.0,30.5,24.36,West,281,4.0,10.0,94,0.00,,SKC,0.00,VWS V14.01,2013-02-28 10:20:00,
2013-02-28 05:25:00,32.0,30.5,24.34,West,268,0.0,7.0,94,0.00,,SKC,0.00,VWS V14.01,2013-02-28 10:25:00,
2013-02-28 05:30:00,32.0,30.5,24.35,WNW,290,4.0,10.0,94,0.00,,SKC,0.00,VWS V14.01,2013-02-28 10:30:00,
2013-02-28 05:35:00,32.1,30.6,24.36,West,265,2.0,11.0,94,0.00,,SKC,0.00,VWS V14.01,2013-02-28 10:35:00,
2013-02-28 05:40:00,32.1,30.6,24.34,West,281,3.0,13.0,94,0.00,,SKC,0.00,VWS V14.01,2013-02-28 10:40:00,
2013-02-28 05:45:00,32.1,30.6,24.36,West,259,5.0,11.0,94,0.00,,SKC,0.00,VWS V14.01,2013-02-28 10:45:00,
2013-02-28 05:50:00,32.1,30.6,24.36,SW,236,8.0,10.0,94,0.00,,SKC,0.00,VWS V14.01,2013-02-28 10:50:00,
2013-02-28 05:55:00,32.1,30.6,24.36,West,260,3.0,9.0,94,0.00,,SKC,0.00,VWS V14.01,2013-02-28 10:55:00,
2013-02-28 06:00:00,32.1,30.6,24.36,West,275,2.0,10.0,94,0.00,,SKC,0.00,VWS V14.01,2013-02-28 11:00:00,
2013-02-28 06:05:00,32.1,30.6,24.36,West,262,1.0,9.0,94,0.00,,SKC,0.00,VWS V14.01,2013-02-28 11:05:00,
2013-02-28 06:10:00,32.1,30.6,24.36,WSW,253,3.0,12.0,94,0.00,,SKC,0.00,VWS V14.01,2013-02-28 11:10:00,
2013-02-28 06:15:00,32.1,30.6,24.36,WSW,257,3.0,6.0,94,0.00,,SKC,0.00,VWS V14.01,2013-02-28 11:15:00,
2013-02-28 06:20:00,32.1,30.6,24.36,WNW,301,6.0,10.0,94,0.00,,SKC,0.00,VWS V14.01,2013-02-28 11:20:00,
2013-02-28 06:25:00,32.1,30.6,24.36,West,269,3.0,7.0,94,0.00,,SKC,0.00,VWS V14.01,2013-02-28 11:25:00,
2013-02-28 06:30:00,32.1,30.6,24.35,West,264,3.0,9.0,94,0.00,,SKC,0.00,VWS V14.01,2013-02-28 11:30:00,
2013-02-28 06:35:00,32.1,30.6,24.35,NW,313,10.0,10.0,94,0.00,,SKC,0.00,VWS V14.01,2013-02-28 11:35:00,
2013-02-28 06:40:00,32.1,30.6,24.36,WNW,284,5.0,6.0,94,0.00,,SKC,0.00,VWS V14.01,2013-02-28 11:40:00,
2013-02-28 06:45:00,32.2,30.9,24.36,North,360,7.0,12.0,95,0.00,,SKC,0.00,VWS V14.01,2013-02-28 11:45:00,
2013-02-28 06:50:00,32.3,31.0,24.34,North,360,3.0,7.0,95,0.00,,SKC,0.00,VWS V14.01,2013-02-28 11:50:00,
2013-02-28 06:55:00,32.3,31.0,24.36,WNW,290,3.0,11.0,95,0.00,,SKC,0.00,VWS V14.01,2013-02-28 11:55:00,
2013-02-28 07:00:00,32.3,31.0,24.36,WNW,287,6.0,11.0,95,0.00,,SKC,0.00,VWS V14.01,2013-02-28 12:00:00,
2013-02-28 07:05:00,32.4,31.1,24.35,North,360,9.0,11.0,95,0.00,,SKC,0.00,VWS V14.01,2013-02-28 12:05:00,
2013-02-28 07:10:00,32.4,31.1,24.37,North,360,10.0,10.0,95,0.00,,SKC,0.00,VWS V14.01,2013-02-28 12:10:00,
2013-02-28 07:15:00,32.5,31.2,24.33,North,360,3.0,6.0,95,0.00,,SKC,0.00,VWS V14.01,2013-02-28 12:15:00,
2013-02-28 07:20:00,32.5,31.2,24.33,West,261,2.0,6.0,95,0.00,,SKC,0.00,VWS V14.01,2013-02-28 12:20:00,
2013-02-28 07:25:00,32.6,31.3,24.33,North,360,5.0,10.0,95,0.00,,SKC,0.00,VWS V14.01,2013-02-28 12:25:00,
2013-02-28 07:30:00,32.6,31.3,24.26,West,275,3.0,9.0,95,0.00,,SKC,0.00,VWS V14.01,2013-02-28 12:30:00,
2013-02-28 07:35:00,32.7,31.4,24.27,West,279,4.0,9.0,95,0.00,,SKC,0.00,VWS V14.01,2013-02-28 12:35:00,
2013-02-28 07:40:00,32.7,31.2,24.25,West,271,5.0,9.0,94,0.00,,SKC,0.00,VWS V14.01,2013-02-28 12:40:00,
2013-02-28 07:45:00,32.8,31.3,24.25,West,261,4.0,10.0,94,0.00,,SKC,0.00,VWS V14.01,2013-02-28 12:45:00,
2013-02-28 07:50:00,32.9,31.4,24.26,North,360,5.0,12.0,94,0.00,,SKC,0.00,VWS V14.01,2013-02-28 12:50:00,
2013-02-28 07:55:00,32.9,31.4,24.25,WNW,296,6.0,9.0,94,0.00,,SKC,0.00,VWS V14.01,2013-02-28 12:55:00,
2013-02-28 08:00:00,33.0,31.5,24.27,NW,306,3.0,13.0,94,0.00,,SKC,0.00,VWS V14.01,2013-02-28 13:00:00,
2013-02-28 08:05:00,33.0,31.7,24.26,WNW,295,4.0,10.0,95,0.00,,SKC,0.00,VWS V14.01,2013-02-28 13:05:00,
2013-02-28 08:10:00,33.1,31.6,24.29,WNW,303,8.0,13.0,94,0.00,,SKC,0.00,VWS V14.01,2013-02-28 13:10:00,
2013-02-28 08:15:00,33.2,31.7,24.28,WNW,299,5.0,14.0,94,0.00,,SKC,0.00,VWS V14.01,2013-02-28 13:15:00,
2013-02-28 08:20:00,33.2,31.7,24.31,NW,325,9.0,10.0,94,0.00,,SKC,0.00,VWS V14.01,2013-02-28 13:20:00,
2013-02-28 08:25:00,33.2,31.7,24.30,West,259,4.0,6.0,94,0.00,,SKC,0.00,VWS V14.01,2013-02-28 13:25:00,
2013-02-28 08:30:00,33.2,31.7,24.30,NW,325,6.0,7.0,94,0.00,,SKC,0.00,VWS V14.01,2013-02-28 13:30:00,
2013-02-28 08:35:00,33.2,31.7,24.34,North,360,5.0,9.0,94,0.00,,SKC,0.00,VWS V14.01,2013-02-28 13:35:00,
2013-02-28 08:40:00,33.3,31.8,24.34,West,281,5.0,10.0,94,0.00,,SKC,0.00,VWS V14.01,2013-02-28 13:40:00,
2013-02-28 08:45:00,33.3,31.8,24.34,WNW,291,0.0,11.0,94,0.00,,SKC,0.00,VWS V14.01,2013-02-28 13:45:00,
2013-02-28 08:50:00,33.4,31.9,24.34,WNW,284,9.0,10.0,94,0.00,,SKC,0.00,VWS V14.01,2013-02-28 13:50:00,
2013-02-28 08:55:00,33.4,31.9,24.32,NNW,331,11.0,12.0,94,0.00,,SKC,0.00,VWS V14.01,2013-02-28 13:55:00,
2013-02-28 09:00:00,33.4,31.9,24.34,WNW,282,3.0,6.0,94,0.00,,SKC,0.00,VWS V14.01,2013-02-28 14:00:00,
2013-02-28 09:05:00,33.4,31.9,24.34,West,281,3.0,7.0,94,0.00,,SKC,0.00,VWS V14.01,2013-02-28 14:05:00,
2013-02-28 09:10:00,33.5,32.0,24.33,NW,313,2.0,5.0,94,0.00,,SKC,0.00,VWS V14.01,2013-02-28 14:10:00,
2013-02-28 09:15:00,33.5,32.0,24.36,WNW,292,1.0,7.0,94,0.00,,SKC,0.00,VWS V14.01,2013-02-28 14:15:00,
2013-02-28 09:20:00,33.5,32.0,24.34,North,360,6.0,11.0,94,0.00,,SKC,0.00,VWS V14.01,2013-02-28 14:20:00,
2013-02-28 09:25:00,33.6,32.1,24.36,NW,315,3.0,14.0,94,0.00,,SKC,0.00,VWS V14.01,2013-02-28 14:25:00,
2013-02-28 09:30:00,33.6,31.8,24.36,WNW,284,3.0,14.0,93,0.00,,SKC,0.00,VWS V14.01,2013-02-28 14:30:00,
2013-02-28 09:35:00,33.7,31.9,24.35,NW,306,4.0,7.0,93,0.00,,SKC,0.00,VWS V14.01,2013-02-28 14:35:00,
2013-02-28 09:40:00,33.7,31.9,24.34,NW,325,6.0,10.0,93,0.00,,SKC,0.00,VWS V14.01,2013-02-28 14:40:00,
2013-02-28 09:45:00,33.7,31.9,24.35,West,273,2.0,6.0,93,0.00,,SKC,0.00,VWS V14.01,2013-02-28 14:45:00,
2013-02-28 09:50:00,33.7,31.9,24.35,West,279,2.0,5.0,93,0.00,,SKC,0.00,VWS V14.01,2013-02-28 14:50:00,
2013-02-28 09:55:00,33.8,32.0,24.35,NW,313,4.0,5.0,93,0.00,,SKC,0.00,VWS V14.01,2013-02-28 14:55:00,
2013-02-28 10:00:00,33.8,32.0,24.34,NW,321,3.0,6.0,93,0.00,,SKC,0.00,VWS V14.01,2013-02-28 15:00:00,
2013-02-28 10:05:00,33.8,33.8,24.35,WNW,283,2.0,6.0,100,0.00,,SKC,0.00,VWS V14.01,2013-02-28 15:05:00,
2013-02-28 10:10:00,33.8,32.0,24.35,NW,319,6.0,6.0,93,0.00,,SKC,0.00,VWS V14.01,2013-02-28 15:10:00,
2013-02-28 10:15:00,33.7,31.9,24.35,NW,323,2.0,11.0,93,0.00,,SKC,0.00,VWS V14.01,2013-02-28 15:15:00,
2013-02-28 10:20:00,33.7,31.9,24.35,WNW,300,7.0,8.0,93,0.00,,SKC,0.00,VWS V14.01,2013-02-28 15:20:00,
2013-02-28 10:25:00,33.7,31.9,24.32,NW,311,6.0,9.0,93,0.00,,SKC,0.00,VWS V14.01,2013-02-28 15:25:00,
2013-02-28 10:30:00,33.7,31.9,24.35,NW,311,7.0,10.0,93,0.00,,SKC,0.00,VWS V14.01,2013-02-28 15:30:00,
2013-02-28 10:35:00,33.7,31.9,24.35,NNW,332,4.0,4.0,93,0.00,,SKC,0.00,VWS V14.01,2013-02-28 15:35:00,
2013-02-28 10:40:00,33.8,32.0,24.35,West,276,4.0,8.0,93,0.00,,SKC,0.00,VWS V14.01,2013-02-28 15:40:00,
2013-02-28 10:45:00,33.9,32.1,24.29,NNW,327,12.0,15.0,93,0.00,,SKC,0.00,VWS V14.01,2013-02-28 15:45:00,
2013-02-28 10:50:00,33.9,31.8,24.27,NW,317,4.0,11.0,92,0.00,,SKC,0.00,VWS V14.01,2013-02-28 15:50:00,
2013-02-28 10:55:00,34.0,31.9,24.29,NW,310,3.0,11.0,92,0.00,,SKC,0.00,VWS V14.01,2013-02-28 15:55:00,
2013-02-28 11:00:00,34.1,32.0,24.27,WNW,291,4.0,9.0,92,0.00,,SKC,0.00,VWS V14.01,2013-02-28 16:00:00,
2013-02-28 11:05:00,34.1,31.8,24.26,NW,314,3.0,9.0,91,0.00,,SKC,0.00,VWS V14.01,2013-02-28 16:05:00,
2013-02-28 11:10:00,34.1,31.8,24.25,NW,326,2.0,11.0,91,0.00,,SKC,0.00,VWS V14.01,2013-02-28 16:10:00,
2013-02-28 11:15:00,34.2,32.1,24.25,North,360,4.0,11.0,92,0.00,,SKC,0.00,VWS V14.01,2013-02-28 16:15:00,
2013-02-28 11:20:00,34.3,32.2,24.26,NW,306,6.0,6.0,92,0.00,,SKC,0.00,VWS V14.01,2013-02-28 16:20:00,
2013-02-28 11:25:00,34.3,32.0,24.25,NNW,344,5.0,6.0,91,0.00,,SKC,0.00,VWS V14.01,2013-02-28 16:25:00,
2013-02-28 11:30:00,34.3,32.0,24.25,WNW,283,9.0,10.0,91,0.00,,SKC,0.00,VWS V14.01,2013-02-28 16:30:00,
2013-02-28 11:35:00,34.3,32.0,24.26,NW,315,4.0,13.0,91,0.00,,SKC,0.00,VWS V14.01,2013-02-28 16:35:00,
2013-02-28 11:40:00,34.3,32.0,24.25,NW,307,3.0,10.0,91,0.01,,SKC,0.01,VWS V14.01,2013-02-28 16:40:00,
2013-02-28 11:45:00,34.4,32.0,24.25,NNW,335,3.0,9.0,91,0.01,,SKC,0.01,VWS V14.01,2013-02-28 16:45:00,
2013-02-28 11:50:00,34.4,32.0,24.25,NNW,340,4.0,5.0,91,0.01,,SKC,0.01,VWS V14.01,2013-02-28 16:50:00,
2013-02-28 11:55:00,34.5,32.2,24.25,NW,323,3.0,6.0,91,0.01,,SKC,0.01,VWS V14.01,2013-02-28 16:55:00,
2013-02-28 12:00:00,34.6,32.0,24.25,WNW,291,2.0,5.0,90,0.01,,SKC,0.01,VWS V14.01,2013-02-28 17:00:00,
2013-02-28 12:05:00,34.6,32.0,24.25,NW,314,4.0,6.0,90,0.02,,SKC,0.02,VWS V14.01,2013-02-28 17:05:00,
2013-02-28 12:10:00,34.8,32.2,24.25,WNW,283,2.0,9.0,90,0.02,,SKC,0.03,VWS V14.01,2013-02-28 17:10:00,
2013-02-28 12:15:00,34.8,32.2,24.25,WNW,300,3.0,11.0,90,0.03,,SKC,0.03,VWS V14.01,2013-02-28 17:15:00,
2013-02-28 12:20:00,34.9,32.3,24.25,NW,326,6.0,11.0,90,0.03,,SKC,0.03,VWS V14.01,2013-02-28 17:20:00,
2013-02-28 12:25:00,35.0,32.4,24.25,WNW,290,3.0,5.0,90,0.03,,SKC,0.03,VWS V14.01,2013-02-28 17:25:00,
2013-02-28 12:30:00,35.0,32.4,24.25,WNW,289,7.0,7.0,90,0.04,,SKC,0.04,VWS V14.01,2013-02-28 17:30:00,
2013-02-28 12:35:00,35.0,32.4,24.25,North,360,4.0,10.0,90,0.04,,SKC,0.04,VWS V14.01,2013-02-28 17:35:00,
2013-02-28 12:40:00,35.0,32.1,24.25,North,360,2.0,11.0,89,0.03,,SKC,0.04,VWS V14.01,2013-02-28 17:40:00,
2013-02-28 12:45:00,35.0,32.4,24.25,NW,312,8.0,8.0,90,0.03,,SKC,0.04,VWS V14.01,2013-02-28 17:45:00,
2013-02-28 12:50:00,34.9,32.0,24.25,North,355,10.0,12.0,89,0.03,,SKC,0.04,VWS V14.01,2013-02-28 17:50:00,
2013-02-28 12:55:00,35.0,32.1,24.25,WNW,284,5.0,13.0,89,0.04,,SKC,0.05,VWS V14.01,2013-02-28 17:55:00,
2013-02-28 13:00:00,35.0,32.4,24.25,WNW,294,4.0,12.0,90,0.04,,SKC,0.05,VWS V14.01,2013-02-28 18:00:00,
2013-02-28 13:05:00,35.1,32.2,24.25,NNW,331,6.0,11.0,89,0.03,,SKC,0.05,VWS V14.01,2013-02-28 18:05:00,
2013-02-28 13:10:00,35.2,32.3,24.25,NNW,338,5.0,12.0,89,0.03,,SKC,0.05,VWS V14.01,2013-02-28 18:10:00,
2013-02-28 13:15:00,35.3,32.4,24.25,NNW,336,6.0,9.0,89,0.02,,SKC,0.05,VWS V14.01,2013-02-28 18:15:00,
2013-02-28 13:20:00,35.3,32.4,24.25,NW,323,5.0,11.0,89,0.02,,SKC,0.05,VWS V14.01,2013-02-28 18:20:00,
2013-02-28 13:25:00,35.2,32.3,24.25,North,355,10.0,11.0,89,0.02,,SKC,0.05,VWS V14.01,2013-02-28 18:25:00,
2013-02-28 13:30:00,35.2,32.3,24.25,NNW,335,5.0,9.0,89,0.01,,SKC,0.05,VWS V14.01,2013-02-28 18:30:00,
2013-02-28 13:35:00,35.1,32.2,24.25,NW,326,5.0,15.0,89,0.02,,SKC,0.06,VWS V14.01,2013-02-28 18:35:00,
2013-02-28 13:40:00,35.2,32.3,24.25,North,5,6.0,6.0,89,0.02,,SKC,0.06,VWS V14.01,2013-02-28 18:40:00,
2013-02-28 13:45:00,35.3,32.4,24.25,NW,313,7.0,10.0,89,0.02,,SKC,0.06,VWS V14.01,2013-02-28 18:45:00,
2013-02-28 13:50:00,35.2,32.3,24.25,North,360,4.0,10.0,89,0.02,,SKC,0.06,VWS V14.01,2013-02-28 18:50:00,
2013-02-28 13:55:00,35.3,32.4,24.25,WNW,300,3.0,6.0,89,0.02,,SKC,0.06,VWS V14.01,2013-02-28 18:55:00,
2013-02-28 14:00:00,35.3,32.4,24.25,NNW,335,10.0,11.0,89,0.01,,SKC,0.06,VWS V14.01,2013-02-28 19:00:00,
2013-02-28 14:05:00,35.3,32.4,24.25,NNW,330,0.0,4.0,89,0.01,,SKC,0.06,VWS V14.01,2013-02-28 19:05:00,
2013-02-28 14:10:00,35.4,32.5,24.25,NW,326,9.0,10.0,89,0.01,,SKC,0.06,VWS V14.01,2013-02-28 19:10:00,
2013-02-28 14:15:00,35.3,32.1,24.25,NNW,342,12.0,13.0,88,0.01,,SKC,0.06,VWS V14.01,2013-02-28 19:15:00,
2013-02-28 14:20:00,35.3,31.8,24.25,NNW,329,12.0,12.0,87,0.01,,SKC,0.06,VWS V14.01,2013-02-28 19:20:00,
2013-02-28 14:25:00,35.3,31.8,24.25,NW,320,5.0,14.0,87,0.01,,SKC,0.06,VWS V14.01,2013-02-28 19:25:00,
2013-02-28 14:30:00,35.3,31.8,24.25,NNW,341,7.0,9.0,87,0.01,,SKC,0.06,VWS V14.01,2013-02-28 19:30:00,
2013-02-28 14:35:00,35.4,31.9,24.25,NNW,333,10.0,10.0,87,0.01,,SKC,0.06,VWS V14.01,2013-02-28 19:35:00,
2013-02-28 14:40:00,35.5,32.0,24.25,NNW,338,2.0,6.0,87,0.00,,SKC,0.06,VWS V14.01,2013-02-28 19:40:00,
2013-02-28 14:45:00,35.5,32.0,24.25,West,277,1.0,5.0,87,0.00,,SKC,0.06,VWS V14.01,2013-02-28 19:45:00,
2013-02-28 14:50:00,35.6,32.1,24.25,NW,325,0.0,4.0,87,0.00,,SKC,0.06,VWS V14.01,2013-02-28 19:50:00,
2013-02-28 14:55:00,35.8,32.0,24.25,NNW,348,4.0,8.0,86,0.00,,SKC,0.06,VWS V14.01,2013-02-28 19:55:00,
2013-02-28 15:00:00,36.0,31.9,24.25,NNW,341,10.0,10.0,85,0.00,,SKC,0.06,VWS V14.01,2013-02-28 20:00:00,
2013-02-28 15:05:00,36.2,32.1,24.25,West,273,6.0,13.0,85,0.00,,SKC,0.06,VWS V14.01,2013-02-28 20:05:00,
2013-02-28 15:10:00,36.3,32.2,24.25,NNW,338,5.0,9.0,85,0.00,,SKC,0.06,VWS V14.01,2013-02-28 20:10:00,
2013-02-28 15:15:00,36.5,32.4,24.25,NNW,340,3.0,5.0,85,0.00,,SKC,0.06,VWS V14.01,2013-02-28 20:15:00,
2013-02-28 15:20:00,36.8,32.1,24.25,NW,323,6.0,13.0,83,0.00,,SKC,0.06,VWS V14.01,2013-02-28 20:20:00,
2013-02-28 15:25:00,36.7,31.7,24.25,NNW,338,9.0,12.0,82,0.00,,SKC,0.06,VWS V14.01,2013-02-28 20:25:00,
2013-02-28 15:30:00,36.7,32.0,24.25,North,360,6.0,10.0,83,0.00,,SKC,0.06,VWS V14.01,2013-02-28 20:30:00,
2013-02-28 15:35:00,36.6,32.2,24.25,NW,304,5.0,12.0,84,0.00,,SKC,0.06,VWS V14.01,2013-02-28 20:35:00,
2013-02-28 15:40:00,36.6,31.9,24.25,NNW,342,4.0,9.0,83,0.00,,SKC,0.06,VWS V14.01,2013-02-28 20:40:00,
2013-02-28 15:45:00,36.6,32.2,24.25,NNW,327,1.0,5.0,84,0.00,,SKC,0.06,VWS V14.01,2013-02-28 20:45:00,
2013-02-28 15:50:00,36.7,32.0,24.25,NNW,333,2.0,7.0,83,0.00,,SKC,0.06,VWS V14.01,2013-02-28 20:50:00,
2013-02-28 15:55:00,36.8,32.1,24.25,North,355,5.0,10.0,83,0.00,,SKC,0.06,VWS V14.01,2013-02-28 20:55:00,
2013-02-28 16:00:00,36.9,32.2,24.25,NNW,342,9.0,13.0,83,0.00,,SKC,0.06,VWS V14.01,2013-02-28 21:00:00,
2013-02-28 16:05:00,37.0,32.3,24.25,NNW,336,4.0,13.0,83,0.00,,SKC,0.06,VWS V14.01,2013-02-28 21:05:00,
2013-02-28 16:10:00,37.0,32.3,24.25,NNW,344,7.0,12.0,83,0.00,,SKC,0.06,VWS V14.01,2013-02-28 21:10:00,
2013-02-28 16:15:00,37.1,32.4,24.25,NNW,334,3.0,7.0,83,0.00,,SKC,0.06,VWS V14.01,2013-02-28 21:15:00,
2013-02-28 16:20:00,37.1,32.4,24.25,West,281,6.0,11.0,83,0.00,,SKC,0.06,VWS V14.01,2013-02-28 21:20:00,
2013-02-28 16:25:00,37.0,32.3,24.25,NNW,327,4.0,10.0,83,0.00,,SKC,0.06,VWS V14.01,2013-02-28 21:25:00,
2013-02-28 16:30:00,37.0,32.3,24.25,NNE,25,5.0,12.0,83,0.00,,SKC,0.06,VWS V14.01,2013-02-28 21:30:00,
2013-02-28 16:35:00,37.0,32.3,24.25,NNW,328,4.0,9.0,83,0.00,,SKC,0.06,VWS V14.01,2013-02-28 21:35:00,
2013-02-28 16:40:00,36.9,32.5,24.25,North,355,10.0,11.0,84,0.00,,SKC,0.06,VWS V14.01,2013-02-28 21:40:00,
2013-02-28 16:45:00,36.8,32.4,24.25,NNW,336,8.0,9.0,84,0.00,,SKC,0.06,VWS V14.01,2013-02-28 21:45:00,
2013-02-28 16:50:00,36.7,32.3,24.25,NW,317,6.0,13.0,84,0.00,,SKC,0.06,VWS V14.01,2013-02-28 21:50:00,
2013-02-28 16:55:00,36.7,32.6,24.25,NW,326,0.0,7.0,85,0.00,,SKC,0.06,VWS V14.01,2013-02-28 21:55:00,
2013-02-28 17:00:00,36.7,32.9,24.25,NW,319,0.0,6.0,86,0.00,,SKC,0.06,VWS V14.01,2013-02-28 22:00:00,
2013-02-28 17:05:00,36.6,32.8,24.25,NNW,341,0.0,0.0,86,0.00,,SKC,0.06,VWS V14.01,2013-02-28 22:05:00,
2013-02-28 17:10:00,36.6,32.8,24.25,WNW,283,5.0,6.0,86,0.00,,SKC,0.06,VWS V14.01,2013-02-28 22:10:00,
2013-02-28 17:15:00,36.5,32.7,24.25,NNW,334,0.0,10.0,86,0.00,,SKC,0.06,VWS V14.01,2013-02-28 22:15:00,
2013-02-28 17:20:00,36.5,32.7,24.25,NW,320,5.0,6.0,86,0.00,,SKC,0.06,VWS V14.01,2013-02-28 22:20:00,
2013-02-28 17:25:00,36.4,32.6,24.25,NNW,342,0.0,7.0,86,0.00,,SKC,0.06,VWS V14.01,2013-02-28 22:25:00,
2013-02-28 17:30:00,36.4,32.6,24.25,NW,325,4.0,7.0,86,0.00,,SKC,0.06,VWS V14.01,2013-02-28 22:30:00,
2013-02-28 17:35:00,36.4,32.6,24.25,NNW,333,0.0,6.0,86,0.00,,SKC,0.06,VWS V14.01,2013-02-28 22:35:00,
2013-02-28 17:40:00,36.4,32.9,24.25,NW,322,1.0,3.0,87,0.00,,SKC,0.06,VWS V14.01,2013-02-28 22:40:00,
2013-02-28 17:45:00,36.5,33.0,24.25,NW,322,0.0,3.0,87,0.00,,SKC,0.06,VWS V14.01,2013-02-28 22:45:00,
2013-02-28 17:50:00,36.5,33.0,24.25,SW,234,0.0,2.0,87,0.00,,SKC,0.06,VWS V14.01,2013-02-28 22:50:00,
2013-02-28 17:55:00,36.5,32.7,24.25,NW,313,3.0,6.0,86,0.00,,SKC,0.06,VWS V14.01,2013-02-28 22:55:00,
2013-02-28 18:00:00,36.5,33.0,24.25,NNW,340,1.0,6.0,87,0.00,,SKC,0.06,VWS V14.01,2013-02-28 23:00:00,
2013-02-28 18:05:00,36.5,33.0,24.25,NNW,333,0.0,4.0,87,0.00,,SKC,0.06,VWS V14.01,2013-02-28 23:05:00,
2013-02-28 18:10:00,36.5,32.7,24.25,North,351,4.0,6.0,86,0.00,,SKC,0.06,VWS V14.01,2013-02-28 23:10:00,
2013-02-28 18:15:00,36.5,33.0,24.25,NW,313,0.0,3.0,87,0.00,,SKC,0.06,VWS V14.01,2013-02-28 23:15:00,
2013-02-28 18:20:00,36.5,32.7,24.25,NNW,348,3.0,6.0,86,0.00,,SKC,0.06,VWS V14.01,2013-02-28 23:20:00,
2013-02-28 18:25:00,36.4,32.6,24.25,North,9,5.0,5.0,86,0.00,,SKC,0.06,VWS V14.01,2013-02-28 23:25:00,
2013-02-28 18:30:00,36.4,32.6,24.24,North,9,0.0,3.0,86,0.00,,SKC,0.06,VWS V14.01,2013-02-28 23:30:00,
2013-02-28 18:35:00,36.3,32.5,24.25,NNW,327,0.0,5.0,86,0.00,,SKC,0.06,VWS V14.01,2013-02-28 23:35:00,
2013-02-28 18:40:00,36.2,32.4,24.25,NNW,336,1.0,6.0,86,0.00,,SKC,0.06,VWS V14.01,2013-02-28 23:40:00,
2013-02-28 18:45:00,36.2,32.4,24.25,NW,325,0.0,3.0,86,0.00,,SKC,0.06,VWS V14.01,2013-02-28 23:45:00,
2013-02-28 18:50:00,36.1,32.3,24.25,NW,325,2.0,4.0,86,0.00,,SKC,0.06,VWS V14.01,2013-02-28 23:50:00,
2013-02-28 18:55:00,36.1,32.3,24.25,NNW,334,4.0,5.0,86,0.00,,SKC,0.06,VWS V14.01,2013-02-28 23:55:00,
2013-02-28 19:00:00,36.1,32.3,24.25,NNW,334,4.0,5.0,86,0.00,,SKC,0.06,VWS V14.01,2013-03-01 00:00:00,
2013-02-28 19:05:00,36.1,32.3,24.25,NW,306,0.0,5.0,86,0.00,,SKC,0.06,VWS V14.01,2013-03-01 00:05:00,
2013-02-28 19:10:00,36.1,32.3,24.25,NNW,345,0.0,7.0,86,0.00,,SKC,0.06,VWS V14.01,2013-03-01 00:10:00,
2013-02-28 19:15:00,36.2,32.1,24.25,NNW,333,2.0,10.0,85,0.00,,SKC,0.06,VWS V14.01,2013-03-01 00:15:00,
2013-02-28 19:20:00,36.1,32.3,24.25,NNW,331,0.0,4.0,86,0.00,,SKC,0.06,VWS V14.01,2013-03-01 00:20:00,
2013-02-28 19:25:00,36.1,32.3,24.25,NNW,338,7.0,12.0,86,0.00,,SKC,0.06,VWS V14.01,2013-03-01 00:25:00,
2013-02-28 19:30:00,35.9,32.1,24.25,NNW,342,7.0,10.0,86,0.00,,SKC,0.06,VWS V14.01,2013-03-01 00:30:00,
2013-02-28 19:35:00,35.8,32.3,24.25,NNW,329,0.0,4.0,87,0.00,,SKC,0.06,VWS V14.01,2013-03-01 00:35:00,
2013-02-28 19:40:00,35.6,32.4,24.25,NW,309,6.0,12.0,88,0.00,,SKC,0.06,VWS V14.01,2013-03-01 00:40:00,
2013-02-28 19:45:00,35.3,32.1,24.25,WNW,301,2.0,7.0,88,0.00,,SKC,0.06,VWS V14.01,2013-03-01 00:45:00,
2013-02-28 19:50:00,35.1,32.2,24.25,NNW,340,7.0,12.0,89,0.00,,SKC,0.06,VWS V14.01,2013-03-01 00:50:00,
2013-02-28 19:55:00,35.0,32.1,24.25,NW,317,0.0,10.0,89,0.00,,SKC,0.06,VWS V14.01,2013-03-01 00:55:00,
2013-02-28 20:00:00,34.9,32.0,24.25,North,355,5.0,7.0,89,0.00,,SKC,0.06,VWS V14.01,2013-03-01 01:00:00,
2013-02-28 20:05:00,34.8,31.9,24.25,NNW,336,5.0,6.0,89,0.00,,SKC,0.06,VWS V14.01,2013-03-01 01:05:00,
2013-02-28 20:10:00,34.8,31.9,24.25,NW,323,6.0,6.0,89,0.00,,SKC,0.06,VWS V14.01,2013-03-01 01:10:00,
2013-02-28 20:15:00,34.8,31.9,24.25,NNW,327,3.0,7.0,89,0.00,,SKC,0.06,VWS V14.01,2013-03-01 01:15:00,
2013-02-28 20:20:00,34.7,31.8,24.25,NW,323,4.0,9.0,89,0.00,,SKC,0.06,VWS V14.01,2013-03-01 01:20:00,
2013-02-28 20:25:00,34.7,31.8,24.25,NW,322,3.0,4.0,89,0.00,,SKC,0.06,VWS V14.01,2013-03-01 01:25:00,
2013-02-28 20:30:00,34.7,32.1,24.25,NW,315,0.0,2.0,90,0.00,,SKC,0.06,VWS V14.01,2013-03-01 01:30:00,
2013-02-28 20:35:00,34.6,32.0,24.25,NNW,341,0.0,7.0,90,0.00,,SKC,0.06,VWS V14.01,2013-03-01 01:35:00,
2013-02-28 20:40:00,34.7,32.1,24.25,NNW,343,0.0,0.0,90,0.00,,SKC,0.06,VWS V14.01,2013-03-01 01:40:00,
2013-02-28 20:45:00,34.6,32.0,24.25,NNW,338,0.0,9.0,90,0.00,,SKC,0.06,VWS V14.01,2013-03-01 01:45:00,
2013-02-28 20:50:00,34.6,32.0,24.25,NW,322,4.0,10.0,90,0.00,,SKC,0.06,VWS V14.01,2013-03-01 01:50:00,
2013-02-28 20:55:00,34.5,31.6,24.25,NW,306,10.0,12.0,89,0.00,,SKC,0.06,VWS V14.01,2013-03-01 01:55:00,
2013-02-28 21:00:00,34.5,31.6,24.25,North,360,3.0,6.0,89,0.00,,SKC,0.06,VWS V14.01,2013-03-01 02:00:00,
2013-02-28 21:05:00,34.4,31.2,24.25,NNW,329,5.0,11.0,88,0.00,,SKC,0.06,VWS V14.01,2013-03-01 02:05:00,
2013-02-28 21:10:00,34.4,30.9,24.25,NNW,330,6.0,8.0,87,0.00,,SKC,0.06,VWS V14.01,2013-03-01 02:10:00,
2013-02-28 21:15:00,34.4,30.9,24.25,NW,315,9.0,13.0,87,0.00,,SKC,0.06,VWS V14.01,2013-03-01 02:15:00,
2013-02-28 21:20:00,34.4,30.6,24.25,North,360,6.0,12.0,86,0.00,,SKC,0.06,VWS V14.01,2013-03-01 02:20:00,
2013-02-28 21:25:00,34.4,30.6,24.25,NNW,344,9.0,14.0,86,0.00,,SKC,0.06,VWS V14.01,2013-03-01 02:25:00,
2013-02-28 21:30:00,34.3,30.3,24.25,NNW,335,5.0,10.0,85,0.00,,SKC,0.06,VWS V14.01,2013-03-01 02:30:00,
2013-02-28 21:35:00,34.3,30.3,24.25,NNW,336,11.0,12.0,85,0.00,,SKC,0.06,VWS V14.01,2013-03-01 02:35:00,
2013-02-28 21:40:00,34.2,30.2,24.25,NNW,344,2.0,9.0,85,0.00,,SKC,0.06,VWS V14.01,2013-03-01 02:40:00,
2013-02-28 21:45:00,34.1,30.1,24.25,NNW,333,1.0,13.0,85,0.00,,SKC,0.06,VWS V14.01,2013-03-01 02:45:00,
2013-02-28 21:50:00,34.1,30.1,24.25,NNW,346,5.0,16.0,85,0.00,,SKC,0.06,VWS V14.01,2013-03-01 02:50:00,
2013-02-28 21:55:00,34.0,30.0,24.25,NNW,331,5.0,10.0,85,0.00,,SKC,0.06,VWS V14.01,2013-03-01 02:55:00,
2013-02-28 22:00:00,34.0,30.0,24.25,NW,314,6.0,9.0,85,0.00,,SKC,0.06,VWS V14.01,2013-03-01 03:00:00,
2013-02-28 22:05:00,33.9,29.9,24.25,NW,325,4.0,8.0,85,0.00,,SKC,0.06,VWS V14.01,2013-03-01 03:05:00,
2013-02-28 22:10:00,33.9,29.9,24.25,North,355,9.0,14.0,85,0.00,,SKC,0.06,VWS V14.01,2013-03-01 03:10:00,
2013-02-28 22:15:00,33.8,29.5,24.25,NNW,346,6.0,12.0,84,0.00,,SKC,0.06,VWS V14.01,2013-03-01 03:15:00,
2013-02-28 22:20:00,33.8,29.8,24.25,NNW,333,6.0,12.0,85,0.00,,SKC,0.06,VWS V14.01,2013-03-01 03:20:00,
2013-02-28 22:25:00,33.7,29.7,24.25,NNW,332,3.0,12.0,85,0.00,,SKC,0.06,VWS V14.01,2013-03-01 03:25:00,
2013-02-28 22:30:00,33.6,29.6,24.25,NNW,329,0.0,7.0,85,0.00,,SKC,0.06,VWS V14.01,2013-03-01 03:30:00,
2013-02-28 22:35:00,33.5,29.5,24.25,North,355,3.0,6.0,85,0.00,,SKC,0.06,VWS V14.01,2013-03-01 03:35:00,
2013-02-28 22:40:00,33.5,29.8,24.25,NW,318,2.0,7.0,86,0.00,,SKC,0.06,VWS V14.01,2013-03-01 03:40:00,
2013-02-28 22:45:00,33.5,29.8,24.25,North,355,0.0,5.0,86,0.00,,SKC,0.06,VWS V14.01,2013-03-01 03:45:00,
2013-02-28 22:50:00,33.4,30.0,24.25,NNW,329,2.0,11.0,87,0.00,,SKC,0.06,VWS V14.01,2013-03-01 03:50:00,
2013-02-28 22:55:00,33.3,29.9,24.25,NNW,344,0.0,7.0,87,0.00,,SKC,0.06,VWS V14.01,2013-03-01 03:55:00,
2013-02-28 23:00:00,33.3,29.9,24.25,NW,307,4.0,10.0,87,0.00,,SKC,0.06,VWS V14.01,2013-03-01 04:00:00,
2013-02-28 23:05:00,33.2,29.8,24.25,NNW,329,0.0,6.0,87,0.00,,SKC,0.06,VWS V14.01,2013-03-01 04:05:00,
2013-02-28 23:10:00,33.2,29.8,24.25,NW,314,6.0,6.0,87,0.00,,SKC,0.06,VWS V14.01,2013-03-01 04:10:00,
2013-02-28 23:15:00,33.1,29.7,24.25,North,355,0.0,6.0,87,0.00,,SKC,0.06,VWS V14.01,2013-03-01 04:15:00,
2013-02-28 23:20:00,33.1,29.7,24.25,North,355,0.0,5.0,87,0.00,,SKC,0.06,VWS V14.01,2013-03-01 04:20:00,
2013-02-28 23:25:00,33.0,29.6,24.25,NNW,331,3.0,4.0,87,0.00,,SKC,0.06,VWS V14.01,2013-03-01 04:25:00,
2013-02-28 23:30:00,33.1,29.7,24.25,NNW,329,1.0,3.0,87,0.00,,SKC,0.06,VWS V14.01,2013-03-01 04:30:00,
2013-02-28 23:35:00,33.0,29.6,24.25,NNW,331,4.0,5.0,87,0.00,,SKC,0.06,VWS V14.01,2013-03-01 04:35:00,
2013-02-28 23:40:00,33.0,29.6,24.25,NW,318,2.0,6.0,87,0.00,,SKC,0.06,VWS V14.01,2013-03-01 04:40:00,
2013-02-28 23:45:00,32.9,29.5,24.25,NW,325,4.0,6.0,87,0.00,,SKC,0.06,VWS V14.01,2013-03-01 04:45:00,
2013-02-28 23:50:00,32.9,29.5,24.25,NNW,338,6.0,6.0,87,0.00,,SKC,0.06,VWS V14.01,2013-03-01 04:50:00,
2013-02-28 23:55:00,32.8,29.4,24.25,NW,312,6.0,14.0,87,0.00,,SKC,0.06,VWS V14.01,2013-03-01 04:55:00,